Location: Unspecified
(0.0000°N, 0.0000°E)
Time: 09:11:01
(UTC+00:00)

deb Delta 104 - Pass Details

Date: 15 March 2026
Orbit: 754 x 1064 km, 103.0° (Epoch: 20 April)

Event Time Altitude Azimuth Distance (km) Brightness Sun altitude
Rises 19:53:13 0° 178° (S) 3,738 ? -26.1°
Reaches altitude 10° 19:55:56 10° 185° (S) 2,746 ? -26.8°
Maximum altitude 20:01:33 39° 252° (WSW) 1,382 ? -28.2°
Drops below altitude 10° 20:06:47 10° 319° (NW) 2,546 ? -29.5°
Sets 20:09:14 0° 327° (NNW) 3,435 ? -30.1°
